FW1108 Weather Reports


Display with metric or nautical units.
time (UTC)temp
F
wind
direction
speed
MPH
gust
MPH
rain 1hr
in
rain 24hr
in
rain mn
in
humidity
%
barometer
mb
20260507230047 0 0.0 0.0 0.00 0.00 0.00 1001.4
20260507224553 0 0.0 0.0 0.00 0.00 0.00 1001.5
20260507223048 0 0.0 0.0 0.00 0.00 0.00 1001.7
20260507221551 0 0.0 0.0 0.00 0.00 0.00 1001.6
20260507220048 0 0.0 0.0 0.00 0.00 0.00 1001.8
20260507214549 0 0.0 0.0 0.00 0.00 0.00 1002.1
20260507213047 0 0.0 0.0 0.00 0.00 0.00 1001.8
20260507211550 0 0.0 0.0 0.00 0.00 0.00 1001.7
20260507210048 0 0.0 0.0 0.00 0.00 0.00 1001.7
20260507204543 0 0.0 0.0 0.00 0.00 0.00 1001.1
20260507203051 0 0.0 0.0 0.00 0.00 0.00 1001.5
20260507201547 0 0.0 0.0 0.00 0.00 0.00 1002.5
20260507200047 0 0.0 0.0 0.00 0.00 0.00 1002.7
20260507194544 0 0.0 0.0 0.00 0.00 0.00 1003.3
20260507193051 0 0.0 0.0 0.00 0.00 0.00 1003.4
20260507191541 0 0.0 0.0 0.00 0.00 0.00 1003.9
20260507190046 0 0.0 0.0 0.00 0.00 0.00 1004.3
20260507184549 0 0.0 0.0 0.00 0.00 0.00 1004.3
20260507183045 0 0.0 0.0 0.00 0.00 0.00 1004.5
20260507181543 0 0.0 0.0 0.00 0.00 0.00 1005.0
20260507180042 0 0.0 0.0 0.00 0.00 0.00 1004.9
20260507174614 0 0.0 0.0 0.00 0.00 0.00 1004.1
20260507173048 0 0.0 0.0 0.00 0.00 0.00 1004.2
20260507171601 0 0.0 0.0 0.00 0.00 0.00 1004.4
20260507170048 0 0.0 0.0 0.00 0.00 0.00 1004.6
20260507164552 0 162 6.0 12.0 0.00 0.00 0.00 1005.2
20260507163048 0 157 8.0 15.0 0.00 0.00 0.00 1006.0
20260507161552 0 204 11.0 23.0 0.00 0.00 0.00 1006.1
20260507160110 0 185 11.0 26.0 0.00 0.00 0.00 1006.7
20260507154547 0 198 14.0 21.0 0.00 0.00 0.00 1006.8
20260507153044 0 144 13.0 23.0 0.00 0.00 0.00 1007.2
20260507151543 0 154 15.0 24.0 0.00 0.00 0.00 1007.4
20260507150051 0 167 15.0 21.0 0.00 0.00 0.00 1007.8
20260507144551 0 178 9.0 22.0 0.00 0.00 0.00 1007.8
20260507143052 0 204 11.0 16.0 0.00 0.00 0.00 1007.9
20260507141547 0 134 12.0 21.0 0.00 0.00 0.00 1008.2
20260507140053 0 142 17.0 22.0 0.00 0.00 0.00 1008.5
20260507134544 0 153 11.0 22.0 0.00 0.00 0.00 1008.5
20260507133057 0 179 12.0 19.0 0.00 0.00 0.00 1008.7
20260507131613 0 196 8.0 26.0 0.00 0.00 0.00 1009.1
20260507130047 0 170 21.0 29.0 0.00 0.00 0.00 1009.2
20260507124553 0 164 16.0 22.0 0.00 0.00 0.00 1008.6
20260507123047 0 143 12.0 19.0 0.00 0.00 0.00 1009.0
20260507121543 0 157 16.0 26.0 0.00 0.00 0.00 1009.0
20260507120044 0 163 17.0 28.0 0.00 0.00 0.00 1009.9
20260507114548 0 197 18.0 26.0 0.00 0.00 0.00 1009.9
20260507113109 0 147 17.0 24.0 0.00 0.00 0.00 1010.5
20260507111547 0 150 18.0 29.0 0.00 0.00 0.00 1010.4
20260507110047 0 196 8.0 21.0 0.00 0.00 0.00 1010.7
20260507104554 0 167 14.0 21.0 0.00 0.00 0.00 1010.7
20260507103048 0 184 7.0 21.0 0.00 0.00 0.00 1011.2
20260507101542 0 220 16.0 30.0 0.00 0.00 0.00 1011.7
20260507100057 0 203 17.0 22.0 0.00 0.00 0.00 1011.6
20260507094547 0 219 15.0 21.0 0.00 0.00 0.00 1011.6
20260507093045 0 197 10.0 17.0 0.00 0.00 0.00 1011.4
20260507091547 0 217 10.0 22.0 0.00 0.00 0.00 1011.5
20260507090042 0 225 8.0 13.0 0.00 0.00 0.00 1011.8
20260507084557 0 196 9.0 13.0 0.00 0.00 0.00 1011.7
20260507083049 0 220 7.0 11.0 0.00 0.00 0.00 1011.7
20260507081547 0 160 9.0 16.0 0.00 0.00 0.00 1011.9
20260507080047 0 194 3.0 10.0 0.00 0.00 0.00 1012.3
20260507074554 0 158 7.0 15.0 0.00 0.00 0.00 1012.4
20260507073043 0 158 5.0 14.0 0.00 0.00 0.00 1012.7
20260507071550 0 174 6.0 14.0 0.00 0.00 0.00 1013.3
20260507064547 0 210 12.0 16.0 0.00 0.00 0.00 1013.6
20260507063052 0 157 5.0 10.0 0.00 0.00 0.00 1013.7
20260507061545 0 220 7.0 11.0 0.00 0.00 0.00 1013.6
20260507060050 0 213 7.0 10.0 0.00 0.00 0.00 1014.1
20260507054545 0 194 5.0 11.0 0.00 0.00 0.00 1014.1
20260507053047 0 186 3.0 11.0 0.00 0.00 0.00 1014.5
20260507051548 0 135 11.0 13.0 0.00 0.00 0.00 1014.7
20260507050107 0 142 8.0 12.0 0.00 0.00 0.00 1015.2
20260507044553 0 148 2.0 8.0 0.00 0.00 0.00 1015.4
20260507043049 0 120 5.0 11.0 0.00 0.00 0.00 1015.5
20260507041554 0 134 6.0 11.0 0.00 0.00 0.00 1015.9
20260507040050 0 182 4.0 11.0 0.00 0.00 0.00 1016.1
20260507034550 0 140 5.0 11.0 0.00 0.00 0.00 1016.1
20260507033049 0 152 5.0 10.0 0.00 0.00 0.00 1016.4
20260507031552 0 160 4.0 12.0 0.00 0.00 0.00 1016.7
20260507030051 0 141 9.0 13.0 0.00 0.00 0.00 1016.8
20260507024549 0 150 7.0 14.0 0.00 0.00 0.00 1017.2
20260507023048 0 130 12.0 17.0 0.00 0.00 0.00 1017.2
20260507021555 0 152 8.0 14.0 0.00 0.00 0.00 1017.1
20260507020043 0 159 8.0 17.0 0.00 0.00 0.00 1017.4
20260507014551 0 157 10.0 15.0 0.00 0.00 0.00 1017.6
20260507013050 0 205 6.0 10.0 0.00 0.00 0.00 1017.8
20260507011550 0 171 10.0 15.0 0.00 0.00 0.00 1018.0
20260507010047 0 151 6.0 12.0 0.00 0.00 0.00 1018.1
20260507004543 0 164 5.0 10.0 0.00 0.00 0.00 1018.2
20260507003047 0 153 4.0 9.0 0.00 0.00 0.00 1018.1
20260507001547 0 196 5.0 9.0 0.00 0.00 0.00 1018.3
20260507000054 0 242 6.0 14.0 0.00 0.00 0.00 1018.3
20260506234603 0 228 7.0 10.0 0.00 0.00 0.00 1018.1
20260506233049 0 226 7.0 12.0 0.00 0.00 0.00 1018.2
20260506231547 0 249 5.0 7.0 0.00 0.00 0.00 1017.9